Location: Liscomb Game Sanctuary
(45.1633°N, 62.5575°W)
Time: 23:57:59
(UTC-03:00)

YAOGAN 6 - Pass Details

Date: 22 February 2018
Orbit: 466 x 508 km, 97.1° (Epoch: 18 June)

Event Time Altitude Azimuth Distance (km) Brightness Sun altitude
Exits shadow 19:41:09 26° 16° (NNE) 990 4.0 -20.6°
Drops below altitude 10° 19:43:00 10° 0° (N) 1,685 5.4 -21.0°
Sets 19:45:07 0° 354° (N) 2,564 6.4 -21.3°
